TJS-4

Last updated on Thu Nov 21 2024 00:02:44 GMT+0000 (Coordinated Universal Time)

1 44637U 19070A 24325.09740821 -.00000167 00000+0 00000+0 0 9991 2 44637 0.0323 330.8117 0001168 234.0841 333.2699 1.00263860 18713
UTC large
Height (km)
Speed (km/s)
/
Latitude / Longitude
Inclination (degrees)
Orbital Period (minutes)
Azimuth
Elevation
Range (km)
Doppler Factor

Next 0 passes for location: London (51.5072 / 0.1276)

Sorry there are no passes over London.